Tracking 29892 objects as of 21-Nov-2024
HD Live streaming from Space Station
objects crossing your sky now

DRUMS TARGET-2

Track DRUMS TARGET-2 now!
10-day predictions


NORAD ID: 58954
Int'l Code: 2021-102N
Perigee: 465.2 km
Apogee: 482.4 km
Inclination: 97.4 °
Period: 93.9 minutes
Semi major axis: 6844 km
RCS: Unknown
Launch date: November 9, 2021
Source: Japan (JPN)
Launch site: KAGOSHIMA SPACE CENTER UNIVERSITY OF TOKYO (KSCUT)
Your satellite tracking list
Your tracking list is empty




NASA's NSSDC Master Catalog

Two Line Element Set (TLE):
1 58954U 21102N   24325.87759175  .00065497  00000-0  20323-2 0  9995
2 58954  97.4057  11.4149 0012593  57.9782 302.2682 15.33075953 49673
Source of the keplerian elements: AFSPC